EN

Hourly Weather Ambert

Today, 16 January, Saturday

Time Temperature Precipitation Wind Pressure Humidity
00:00 -6°C° 0 mm 2 mps 697 mmHg 93%
01:00 -6°C° 0 mm 2 mps 697 mmHg 93%
02:00 -6°C° 0 mm 2 mps 697 mmHg 92%
03:00 -6°C° 0 mm 2 mps 697 mmHg 91%
04:00 -4°C° 0 mm 1 mps 697 mmHg 91%
05:00 -4°C° 0 mm 1 mps 697 mmHg 91%
06:00 -6°C° 0 mm 1 mps 697 mmHg 90%
07:00 -4°C° 0 mm 1 mps 697 mmHg 89%
08:00 -4°C° 0 mm 1 mps 697 mmHg 87%
09:00 -4°C° 0 mm 1 mps 697 mmHg 86%
10:00 -2°C° 0 mm 1 mps 697 mmHg 81%
11:00 -1°C° 0 mm 1 mps 697 mmHg 76%
12:00 0°C° 0 mm 1 mps 697 mmHg 71%
13:00 0°C° 0 mm 1 mps 697 mmHg 70%
14:00 +1°C° 0 mm 1 mps 697 mmHg 70%
15:00 +1°C° 0 mm 1 mps 696 mmHg 69%
16:00 0°C° 0.1 mm 1 mps 696 mmHg 76%
17:00 -1°C° 0.1 mm 1 mps 696 mmHg 83%
18:00 -2°C° 0.1 mm 1 mps 696 mmHg 90%
19:00 -1°C° 0.8 mm 1 mps 695 mmHg 92%
20:00 -1°C° 0.8 mm 1 mps 695 mmHg 94%
21:00 0°C° 0.8 mm 1 mps 695 mmHg 96%
22:00 0°C° 1.4 mm 1 mps 695 mmHg 96%
23:00 -1°C° 1.4 mm 2 mps 695 mmHg 97%

Tomorrow, 17 January, Sunday

Time Temperature Precipitation Wind Pressure Humidity
00:00 -1°C° 1.4 mm 2 mps 694 mmHg 97%
01:00 +1°C° 1.4 mm 2 mps 694 mmHg 97%
02:00 +2°C° 1.4 mm 1 mps 694 mmHg 98%
03:00 +3°C° 1.4 mm 1 mps 693 mmHg 98%
04:00 +2°C° 0.2 mm 2 mps 693 mmHg 98%
05:00 +2°C° 0.2 mm 2 mps 693 mmHg 98%
06:00 +2°C° 0.2 mm 2 mps 694 mmHg 98%
07:00 +1°C° 0 mm 2 mps 694 mmHg 98%
08:00 +1°C° 0 mm 2 mps 694 mmHg 98%
09:00 +2°C° 0 mm 1 mps 694 mmHg 97%
10:00 +1°C° 0.1 mm 2 mps 695 mmHg 96%
11:00 +2°C° 0.1 mm 2 mps 695 mmHg 94%
12:00 +2°C° 0.1 mm 2 mps 696 mmHg 92%
13:00 +1°C° 0.1 mm 3 mps 696 mmHg 91%
14:00 +1°C° 0.1 mm 3 mps 695 mmHg 91%
15:00 +1°C° 0.1 mm 3 mps 695 mmHg 90%
16:00 0°C° 0.1 mm 3 mps 696 mmHg 92%
17:00 -1°C° 0.1 mm 3 mps 696 mmHg 94%
18:00 -2°C° 0.1 mm 2 mps 697 mmHg 96%
19:00 -3°C° 0 mm 2 mps 697 mmHg 96%
20:00 -3°C° 0 mm 2 mps 697 mmHg 96%
21:00 -1°C° 0 mm 1 mps 697 mmHg 97%
22:00 -1°C° 0 mm 1 mps 698 mmHg 97%
23:00 -1°C° 0 mm 1 mps 698 mmHg 97%

Day after tomorrow, 18 January, Monday

Time Temperature Precipitation Wind Pressure Humidity
00:00 0°C° 0 mm 1 mps 698 mmHg 98%
01:00 0°C° 0 mm 1 mps 698 mmHg 97%
02:00 0°C° 0 mm 1 mps 698 mmHg 97%
03:00 0°C° 0 mm 1 mps 698 mmHg 97%
04:00 -1°C° 0 mm 1 mps 698 mmHg 97%
05:00 -1°C° 0 mm 1 mps 698 mmHg 97%
06:00 -1°C° 0 mm 1 mps 698 mmHg 97%
07:00 -1°C° 0 mm 1 mps 698 mmHg 95%
08:00 -2°C° 0 mm 0 mps 698 mmHg 93%
09:00 -1°C° 0 mm 0 mps 698 mmHg 92%
10:00 -1°C° 0 mm 0 mps 698 mmHg 89%
11:00 0°C° 0 mm 0 mps 698 mmHg 87%
12:00 +1°C° 0 mm 0 mps 698 mmHg 85%
13:00 +1°C° 0 mm 0 mps 698 mmHg 85%
14:00 +1°C° 0 mm 0 mps 697 mmHg 85%
15:00 +1°C° 0 mm 0 mps 697 mmHg 85%
16:00 -1°C° 0 mm 0 mps 697 mmHg 88%
17:00 -2°C° 0 mm 0 mps 697 mmHg 91%
18:00 -3°C° 0 mm 0 mps 697 mmHg 93%
19:00 -2°C° 0 mm 1 mps 697 mmHg 92%
20:00 -3°C° 0 mm 1 mps 696 mmHg 91%
21:00 -3°C° 0 mm 1 mps 696 mmHg 90%
22:00 -3°C° 0 mm 1 mps 696 mmHg 88%
23:00 -3°C° 0 mm 1 mps 696 mmHg 86%

19 January, Tuesday

Time Temperature Precipitation Wind Pressure Humidity
00:00 -3°C° 0 mm 1 mps 696 mmHg 83%
01:00 -3°C° 0 mm 1 mps 695 mmHg 82%
02:00 -3°C° 0 mm 1 mps 695 mmHg 80%
03:00 -3°C° 0 mm 1 mps 695 mmHg 79%
04:00 -3°C° 0 mm 1 mps 695 mmHg 77%
05:00 -3°C° 0 mm 1 mps 694 mmHg 75%
06:00 -5°C° 0 mm 2 mps 694 mmHg 73%
07:00 -4°C° 0 mm 2 mps 694 mmHg 72%
08:00 -3°C° 0 mm 2 mps 694 mmHg 70%
09:00 -1°C° 0 mm 2 mps 694 mmHg 68%
10:00 +1°C° 0 mm 2 mps 694 mmHg 67%
11:00 +3°C° 0 mm 2 mps 693 mmHg 67%
12:00 +5°C° 0 mm 2 mps 693 mmHg 67%
13:00 +5°C° 0 mm 2 mps 693 mmHg 71%
14:00 +5°C° 0 mm 2 mps 692 mmHg 75%
15:00 +5°C° 0 mm 2 mps 692 mmHg 79%
16:00 +3°C° 0 mm 2 mps 691 mmHg 82%
17:00 +1°C° 0 mm 3 mps 691 mmHg 85%
18:00 -1°C° 0 mm 3 mps 691 mmHg 89%
19:00 -1°C° 0 mm 3 mps 690 mmHg 89%
20:00 -1°C° 0 mm 3 mps 690 mmHg 89%
21:00 -2°C° 0 mm 4 mps 690 mmHg 90%
22:00 -1°C° 0 mm 4 mps 690 mmHg 89%
23:00 -1°C° 0 mm 4 mps 690 mmHg 89%

20 January, Wednesday

Time Temperature Precipitation Wind Pressure Humidity
00:00 0°C° 0 mm 4 mps 689 mmHg 89%
01:00 0°C° 0 mm 4 mps 689 mmHg 89%
02:00 0°C° 0 mm 4 mps 688 mmHg 90%
03:00 +1°C° 0 mm 4 mps 688 mmHg 90%
04:00 +1°C° 0 mm 4 mps 687 mmHg 90%
05:00 +1°C° 0 mm 4 mps 687 mmHg 90%
06:00 +1°C° 0 mm 4 mps 686 mmHg 89%
07:00 +2°C° 0 mm 5 mps 686 mmHg 88%
08:00 +3°C° 0 mm 5 mps 685 mmHg 86%
09:00 +3°C° 0 mm 6 mps 685 mmHg 84%
10:00 +4°C° 0 mm 7 mps 685 mmHg 82%
11:00 +5°C° 0 mm 8 mps 684 mmHg 80%
12:00 +5°C° 0 mm 9 mps 684 mmHg 78%
13:00 +5°C° 0 mm 8 mps 683 mmHg 79%
14:00 +5°C° 0 mm 8 mps 683 mmHg 80%
15:00 +4°C° 0 mm 7 mps 682 mmHg 81%
16:00 +4°C° 0 mm 7 mps 682 mmHg 82%
17:00 +4°C° 0 mm 6 mps 682 mmHg 83%
18:00 +3°C° 0 mm 6 mps 682 mmHg 84%
19:00 +3°C° 0 mm 5 mps 682 mmHg 86%
20:00 +3°C° 0 mm 5 mps 682 mmHg 87%
21:00 +3°C° 0 mm 5 mps 682 mmHg 88%
22:00 +3°C° 0 mm 5 mps 682 mmHg 88%
23:00 +4°C° 0 mm 4 mps 682 mmHg 88%

21 January, Thursday

Time Temperature Precipitation Wind Pressure Humidity
00:00 +4°C° 0 mm 4 mps 681 mmHg 89%
01:00 +3°C° 0.1 mm 5 mps 681 mmHg 89%
02:00 +3°C° 0.1 mm 5 mps 681 mmHg 89%
03:00 +3°C° 0.1 mm 5 mps 681 mmHg 89%
04:00 +3°C° 0.3 mm 5 mps 682 mmHg 90%
05:00 +3°C° 0.3 mm 5 mps 683 mmHg 90%
06:00 +4°C° 0.3 mm 4 mps 684 mmHg 91%
07:00 +3°C° 0.1 mm 4 mps 684 mmHg 90%
08:00 +2°C° 0.1 mm 3 mps 685 mmHg 90%
09:00 +2°C° 0.1 mm 3 mps 686 mmHg 90%
10:00 +3°C° 0 mm 2 mps 686 mmHg 85%
11:00 +3°C° 0 mm 2 mps 686 mmHg 81%
12:00 +4°C° 0 mm 2 mps 686 mmHg 76%
13:00 +4°C° 0 mm 2 mps 685 mmHg 76%
14:00 +4°C° 0 mm 2 mps 685 mmHg 77%
15:00 +4°C° 0 mm 2 mps 685 mmHg 77%
16:00 +3°C° 0 mm 2 mps 684 mmHg 80%
17:00 +2°C° 0 mm 2 mps 684 mmHg 83%
18:00 +1°C° 0 mm 2 mps 683 mmHg 86%
19:00 +1°C° 0 mm 2 mps 683 mmHg 87%
20:00 +2°C° 0 mm 2 mps 682 mmHg 88%
21:00 +2°C° 0 mm 2 mps 682 mmHg 90%
22:00 +2°C° 0 mm 2 mps 681 mmHg 91%
23:00 +2°C° 0 mm 2 mps 681 mmHg 92%
Show more